Location: David Mid Texas Observatory
(30.9664°N, 96.2113°W)
Time: 17:57:41
(UTC-06:00)

Tiangong 1 - Visible Passes

Search period start: 19 November 2017 00:00
Search period end: 29 November 2017 00:00
Orbit: 285 x 309 km, 42.8° (Epoch: 19 November)

Date Brightness Start Highest point End Pass type
(mag) Time Alt. Az. Time Alt. Az. Time Alt. Az.
21 Nov 4.3 19:26:18 10° WSW 19:26:24 11° WSW 19:26:24 11° WSW visible
22 Nov 2.5 17:59:13 10° S 18:01:07 18° SE 18:02:51 11° E visible
23 Nov 0.9 18:05:16 10° SW 18:07:47 50° SE 18:09:32 17° ENE visible
24 Nov 1.0 18:11:52 10° WSW 18:14:25 54° NNW 18:16:03 19° NE visible
25 Nov 2.4 18:18:49 10° W 18:21:01 24° NNW 18:22:23 16° NNE visible
26 Nov 3.0 18:26:06 10° NW 18:27:36 14° NNW 18:28:33 12° N visible
